IGO136H VOMM-VOBL

Flight info

Callsign IGO136H
Flight time N/A
Altitude 20000
Route MMV W117 BIA
Aircraft A320/M-SDE3FGHIRWY/LB1

Departure

Time 2026-04-21 09:25
Airport Chennai International Airport (VOMM)

Arrival

Time N/A
Airport Kempegowda International Airport Bengaluru (VOBL)
Time Latitude Longitude Altitude Speed Heading
2026-04-21 09:07 12.98408 80.16494 47 ft 0 kts 163°
2026-04-21 09:17 12.98410 80.16494 56 ft 2 kts 163°
2026-04-21 09:17 12.98426 80.16489 48 ft 2 kts 168°
2026-04-21 09:17 12.98442 80.16485 51 ft 2 kts 171°
2026-04-21 09:18 12.98459 80.16483 53 ft 2 kts 178°
2026-04-21 09:18 12.98475 80.16483 49 ft 2 kts 194°
2026-04-21 09:18 12.98490 80.16490 54 ft 2 kts 231°
2026-04-21 09:18 12.98498 80.16501 54 ft 1 kts 250°
2026-04-21 09:19 12.98498 80.16503 54 ft 0 kts 249°
2026-04-21 09:20 12.98498 80.16502 54 ft 1 kts 249°
2026-04-21 09:20 12.98490 80.16483 49 ft 4 kts 248°
2026-04-21 09:20 12.98474 80.16445 53 ft 7 kts 247°
2026-04-21 09:21 12.98452 80.16388 53 ft 10 kts 248°
2026-04-21 09:21 12.98424 80.16311 52 ft 13 kts 249°
2026-04-21 09:21 12.98392 80.16224 52 ft 14 kts 250°
2026-04-21 09:21 12.98357 80.16125 55 ft 16 kts 250°
2026-04-21 09:22 12.98314 80.16005 54 ft 19 kts 249°
2026-04-21 09:22 12.98290 80.15903 54 ft 14 kts 274°
2026-04-21 09:22 12.98322 80.15796 54 ft 17 kts 287°
2026-04-21 09:22 12.98356 80.15673 54 ft 19 kts 284°
2026-04-21 09:23 12.98385 80.15562 53 ft 9 kts 284°
2026-04-21 09:23 12.98404 80.15491 51 ft 12 kts 290°
2026-04-21 09:23 12.98457 80.15438 54 ft 9 kts
2026-04-21 09:23 12.98488 80.15488 54 ft 8 kts 68°
2026-04-21 09:24 12.98491 80.15497 54 ft 2 kts 68°
2026-04-21 09:24 12.98518 80.15564 54 ft 36 kts 69°
2026-04-21 09:24 12.98700 80.16053 51 ft 106 kts 68°
2026-04-21 09:24 12.99026 80.16942 55 ft 156 kts 72°
2026-04-21 09:25 12.99330 80.18044 523 ft 161 kts 84°
2026-04-21 09:25 12.99583 80.19214 1064 ft 175 kts 80°
2026-04-21 09:25 12.99996 80.20440 1458 ft 196 kts 57°
2026-04-21 09:25 13.01199 80.21235 1638 ft 225 kts 11°
2026-04-21 09:26 13.02830 80.21010 1811 ft 253 kts 330°
2026-04-21 09:26 13.04112 80.19734 2221 ft 270 kts 295°
2026-04-21 09:26 13.04684 80.17902 3125 ft 271 kts 278°
2026-04-21 09:26 13.04929 80.15976 3997 ft 274 kts 274°
2026-04-21 09:27 13.05096 80.14009 4889 ft 278 kts 275°
2026-04-21 09:27 13.05303 80.12041 5694 ft 284 kts 278°
2026-04-21 09:27 13.05586 80.10007 6464 ft 290 kts 280°
2026-04-21 09:27 13.05931 80.07948 7241 ft 295 kts 282°
2026-04-21 09:28 13.06322 80.05863 8045 ft 299 kts 283°
2026-04-21 09:28 13.06746 80.03747 8860 ft 304 kts 283°
2026-04-21 09:28 13.07186 80.01606 9652 ft 309 kts 284°
2026-04-21 09:28 13.07650 79.99384 10097 ft 327 kts 284°
2026-04-21 09:29 13.08140 79.97049 10301 ft 350 kts 283°
2026-04-21 09:29 13.08663 79.94527 10620 ft 366 kts 283°
2026-04-21 09:29 13.09190 79.91970 11205 ft 372 kts 283°
2026-04-21 09:29 13.09724 79.89349 11875 ft 375 kts 283°
2026-04-21 09:30 13.10258 79.86711 12552 ft 377 kts 283°
2026-04-21 09:30 13.10789 79.84090 13225 ft 380 kts 283°
2026-04-21 09:30 13.11328 79.81425 13850 ft 383 kts 283°
2026-04-21 09:30 13.11876 79.78731 14426 ft 386 kts 283°
2026-04-21 09:31 13.12425 79.76053 15022 ft 389 kts 281°
2026-04-21 09:31 13.12841 79.73281 15618 ft 392 kts 278°
2026-04-21 09:31 13.13196 79.70492 16178 ft 395 kts 277°
2026-04-21 09:31 13.13518 79.67671 16751 ft 398 kts 276°
2026-04-21 09:32 13.13826 79.64838 17350 ft 401 kts 276°
2026-04-21 09:32 13.14134 79.62015 17938 ft 403 kts 276°
2026-04-21 09:32 13.14457 79.59143 18455 ft 405 kts 276°
2026-04-21 09:32 13.14791 79.56256 18973 ft 407 kts 276°
2026-04-21 09:33 13.15127 79.53407 19476 ft 408 kts 276°
2026-04-21 09:33 13.15469 79.50493 19702 ft 409 kts 276°
2026-04-21 09:33 13.15811 79.47565 19764 ft 419 kts 276°
2026-04-21 09:33 13.16161 79.44557 19771 ft 434 kts 276°
2026-04-21 09:34 13.16525 79.41438 19771 ft 440 kts 276°
2026-04-21 09:34 13.16888 79.38338 19766 ft 442 kts 276°
2026-04-21 09:34 13.17256 79.35193 19774 ft 442 kts 276°
2026-04-21 09:34 13.17621 79.32068 19775 ft 442 kts 276°
2026-04-21 09:35 13.17986 79.28926 19777 ft 442 kts 276°
2026-04-21 09:35 13.18347 79.25793 19779 ft 442 kts 276°
2026-04-21 09:35 13.18704 79.22693 19779 ft 442 kts 276°
2026-04-21 09:35 13.19066 79.19549 19783 ft 442 kts 275°
2026-04-21 09:36 13.19427 79.16408 19782 ft 442 kts 276°
2026-04-21 09:36 13.19788 79.13277 19783 ft 442 kts 275°
2026-04-21 09:36 13.20147 79.10192 19789 ft 442 kts 276°
2026-04-21 09:36 13.20513 79.07049 19789 ft 441 kts 276°
2026-04-21 09:37 13.20879 79.03914 19794 ft 441 kts 276°
2026-04-21 09:37 13.21240 79.00806 19797 ft 441 kts 275°
2026-04-21 09:37 13.21600 78.97679 19801 ft 439 kts 275°
2026-04-21 09:37 13.21957 78.94549 19818 ft 440 kts 275°
2026-04-21 09:38 13.22314 78.91420 19821 ft 441 kts 276°
2026-04-21 09:38 13.22669 78.88324 19826 ft 441 kts 276°
2026-04-21 09:38 13.23028 78.85190 19828 ft 441 kts 275°
2026-04-21 09:38 13.23386 78.82061 19834 ft 440 kts 276°
2026-04-21 09:39 13.23742 78.78939 19839 ft 440 kts 275°
2026-04-21 09:39 13.24095 78.75849 19847 ft 440 kts 275°
2026-04-21 09:39 13.24453 78.72717 19849 ft 440 kts 275°
2026-04-21 09:39 13.24811 78.69587 19853 ft 439 kts 275°
2026-04-21 09:40 13.25160 78.66493 19854 ft 439 kts 275°
2026-04-21 09:40 13.25512 78.63361 19852 ft 439 kts 275°
2026-04-21 09:40 13.25744 78.61297 19855 ft 439 kts 275°
2026-04-21 09:40 13.26213 78.57168 19860 ft 438 kts 275°
2026-04-21 09:41 13.26568 78.54048 19860 ft 438 kts 275°
2026-04-21 09:41 13.26803 78.51973 19861 ft 438 kts 275°
2026-04-21 09:41 13.27154 78.48863 19862 ft 439 kts 275°
2026-04-21 09:41 13.27500 78.45774 19866 ft 439 kts 275°
2026-04-21 09:42 13.27849 78.42645 19868 ft 439 kts 275°
2026-04-21 09:42 13.28197 78.39520 19872 ft 439 kts 275°
2026-04-21 09:42 13.28542 78.36443 19876 ft 439 kts 275°
2026-04-21 09:42 13.28895 78.33328 19880 ft 439 kts 275°
2026-04-21 09:43 13.29248 78.30208 19880 ft 439 kts 275°
2026-04-21 09:43 13.29599 78.27087 19883 ft 439 kts 275°
2026-04-21 09:43 13.29942 78.23996 19884 ft 439 kts 275°
2026-04-21 09:43 13.30287 78.20878 19890 ft 438 kts 275°
2026-04-21 09:44 13.30418 78.17778 19889 ft 437 kts 269°
2026-04-21 09:44 13.30457 78.14646 19889 ft 437 kts 269°
2026-04-21 09:44 13.30501 78.11596 19678 ft 422 kts 270°
2026-04-21 09:44 13.30549 78.08626 19451 ft 412 kts 270°
2026-04-21 09:45 13.30596 78.05688 19193 ft 407 kts 270°
2026-04-21 09:45 13.30641 78.02793 18675 ft 404 kts 270°
2026-04-21 09:45 13.30682 77.99939 18106 ft 402 kts 270°
2026-04-21 09:45 13.30723 77.97068 17488 ft 400 kts 270°
2026-04-21 09:46 13.30763 77.94240 17233 ft 387 kts 270°
2026-04-21 09:46 13.30799 77.91517 17136 ft 372 kts 270°
2026-04-21 09:46 13.30832 77.88933 16987 ft 360 kts 270°
2026-04-21 09:46 13.30867 77.86407 16837 ft 349 kts 270°
2026-04-21 09:47 13.30901 77.83951 16684 ft 339 kts 270°
2026-04-21 09:47 13.30932 77.81555 16538 ft 330 kts 270°
2026-04-21 09:47 13.30961 77.79228 16395 ft 322 kts 270°
2026-04-21 09:47 13.30987 77.76945 16139 ft 318 kts 270°
2026-04-21 09:48 13.31009 77.74685 15590 ft 320 kts 270°
2026-04-21 09:48 13.31026 77.72385 15091 ft 325 kts 270°
2026-04-21 09:48 13.31043 77.70026 14581 ft 331 kts 270°
2026-04-21 09:48 13.31062 77.67662 14074 ft 337 kts 270°
2026-04-21 09:49 13.31082 77.65225 13511 ft 342 kts 270°
2026-04-21 09:49 13.31102 77.62762 12942 ft 345 kts 270°
2026-04-21 09:49 13.31122 77.60312 12406 ft 348 kts 270°
2026-04-21 09:49 13.31138 77.57817 11857 ft 350 kts 270°
2026-04-21 09:50 13.31154 77.55304 11300 ft 352 kts 270°
2026-04-21 09:50 13.31165 77.53639 10933 ft 353 kts 270°
2026-04-21 09:50 13.31037 77.47804 10153 ft 339 kts 255°
2026-04-21 09:51 13.29989 77.45717 9977 ft 328 kts 228°
2026-04-21 09:51 13.28145 77.44372 9443 ft 327 kts 199°
2026-04-21 09:51 13.25933 77.43886 8972 ft 325 kts 183°
2026-04-21 09:51 13.23698 77.43795 8523 ft 325 kts 179°
2026-04-21 09:52 13.21458 77.43988 8083 ft 321 kts 161°
2026-04-21 09:52 13.19569 77.45155 7668 ft 315 kts 131°
2026-04-21 09:52 13.18531 77.47064 7254 ft 310 kts 104°
2026-04-21 09:52 13.18311 77.49250 7040 ft 303 kts 88°
2026-04-21 09:53 13.18771 77.51291 7017 ft 289 kts 67°
2026-04-21 09:53 13.19421 77.53253 6534 ft 294 kts 83°
2026-04-21 09:53 13.19228 77.55334 6125 ft 297 kts 101°
2026-04-21 09:53 13.18996 77.57427 5867 ft 293 kts 91°
2026-04-21 09:54 13.19021 77.59542 5354 ft 300 kts 90°
2026-04-21 09:54 13.19040 77.61692 4853 ft 307 kts 90°
2026-04-21 09:54 13.19020 77.63898 4345 ft 310 kts 90°
2026-04-21 09:55 13.18939 77.73226 4706 ft 303 kts 90°